Location: Lombard
(41.8800°N, 88.0080°W)
Time: 23:06:04
(UTC-05:00)

Transit 2A - Pass Details

Date: 13 February 2023
Orbit: 591 x 964 km, 66.7° (Epoch: 20 March)

Event Time Altitude Azimuth Distance (km) Brightness Sun altitude
Rises 23:28:31 0° 327° (NNW) 3,554 - -60.1°
Reaches altitude 10° 23:31:01 10° 326° (NW) 2,643 - -60.2°
Maximum altitude 23:37:14 74° 243° (WSW) 998 - -60.5°
Drops below altitude 10° 23:43:35 10° 159° (SSE) 2,688 - -60.8°
Sets 23:46:07 0° 158° (SSE) 3,617 - -60.9°
